Location: Newark
(42.8481°N, 0.4872°E)
Time: 22:39:04
(UTC+00:00)

Vanguard 3 - Pass Details

Date: 04 November 2020
Orbit: 508 x 3262 km, 33.3° (Epoch: 28 November)

Event Time Altitude Azimuth Distance (km) Brightness Sun altitude
Rises 00:31:09 0° 175° (S) 4,678 - -60.6°
Reaches altitude 10° 00:36:35 10° 150° (SSE) 4,302 - -60.2°
Maximum altitude 00:41:23 13° 126° (SE) 4,524 - -59.8°
Exits shadow 00:44:21 12° 113° (ESE) 4,869 11.1 -59.5°
Drops below altitude 10° 00:47:03 10° 104° (ESE) 5,276 11.3 -59.2°
Sets 00:55:33 0° 83° (E) 6,849 12.2 -58.4°
